Data for 10/18/2016

Time Sea-Level Adjusted Pressure Absolute Pressure Temperature Relative Humidity Dew Point   
(mb) (inHg) (mb) (inHg) (C) (F) (%) (C) (F)
00:05 1015 29.97 844 24.92 6.8 44.2 46 -4.2 24.5
00:10 1015 29.97 844 24.92 6.7 44.1 45 -4.5 23.9
00:15 1015 29.97 844 24.92 6.7 44.1 45 -4.4 24.1
00:20 1015 29.97 844 24.92 6.7 44 45 -4.5 23.9
00:25 1015 29.97 844 24.92 6.6 43.9 45 -4.4 24
00:30 1015 29.97 844 24.92 6.6 43.8 45 -4.6 23.7
00:35 1015 29.97 844 24.92 6.6 43.8 44 -4.7 23.5
00:40 1015 29.97 844 24.92 6.6 44 44 -4.8 23.3
00:45 1015 29.97 844 24.92 6.7 44 45 -4.5 23.8
00:50 1015 29.97 844 24.92 6.6 43.9 44 -4.6 23.7
00:55 1015 29.97 844 24.92 6.6 43.8 46 -4.3 24.2
01:00 1015 29.97 844 24.92 6.5 43.7 46 -4.3 24.3
01:05 1015 29.97 844 24.92 6.4 43.5 47 -4.1 24.7
01:10 1015 29.97 844 24.92 6 42.9 49 -3.9 24.9
01:15 1015 29.97 844 24.92 5.8 42.4 50 -3.8 25.1
01:20 1015 29.97 844 24.92 5.7 42.3 50 -3.8 25.1
01:25 1015 29.97 844 24.92 5.7 42.2 49 -4.1 24.6
01:30 1015 29.97 844 24.92 5.9 42.6 48 -4.2 24.4
01:35 1015 29.97 844 24.92 6 42.8 47 -4.3 24.2
01:40 1015 29.97 844 24.92 6 42.9 48 -4.1 24.6
01:45 1015 29.97 844 24.92 6 42.8 48 -4.2 24.5
01:50 1015 29.97 844 24.92 6 42.8 47 -4.3 24.2
01:55 1015 29.97 844 24.92 6 42.9 47 -4.3 24.2
02:00 1015 29.97 844 24.92 6.1 42.9 47 -4.3 24.2
02:05 1015 29.97 844 24.92 6.1 42.9 48 -4.2 24.5
02:10 1015 29.97 844 24.92 6 42.8 47 -4.3 24.2
02:15 1015 29.97 844 24.92 6.2 43.1 45 -4.9 23.1
02:20 1015 29.97 844 24.92 6.3 43.3 45 -4.6 23.7
02:25 1015 29.97 844 24.92 6.3 43.3 46 -4.4 24
02:30 1015 29.97 844 24.92 6.2 43.1 45 -4.9 23.1
02:35 1015 29.97 844 24.92 6.4 43.5 45 -4.8 23.3
02:40 1015 29.97 845 24.95 6.3 43.3 47 -4.3 24.3
02:45 1015 29.97 845 24.95 6.1 43.1 46 -4.7 23.6
02:50 1015 29.97 845 24.95 6.2 43.2 45 -4.7 23.5
02:55 1015 29.97 845 24.95 6.3 43.3 43 -5.3 22.5
03:00 1015 29.97 845 24.95 6.5 43.6 42 -5.6 21.9
03:05 1015 29.97 845 24.95 6.5 43.8 43 -5.2 22.7
03:10 1015 29.97 845 24.95 6.4 43.5 43 -5.2 22.7
03:15 1015 29.97 845 24.95 6.3 43.4 44 -5 23.1
03:20 1015 29.97 845 24.95 6.3 43.3 45 -4.9 23.2
03:25 1015 29.97 845 24.95 6.2 43.2 44 -5.2 22.7
03:30 1015 29.97 845 24.95 6.2 43.2 44 -5.2 22.7
03:35 1015 29.97 845 24.95 6.2 43.2 44 -5.3 22.5
03:40 1015 29.97 845 24.95 6.2 43.2 44 -5.1 22.7
03:45 1015 29.97 845 24.95 6.2 43.1 44 -5.1 22.9
03:50 1015 29.97 845 24.95 6.1 43 45 -4.9 23.1
03:55 1015 29.97 845 24.95 6 42.8 46 -4.7 23.5
04:00 1015 29.97 845 24.95 5.8 42.5 47 -4.7 23.6
04:05 1015 29.97 845 24.95 5.6 42.2 48 -4.6 23.8
04:10 1015 29.97 845 24.95 5.5 41.9 47 -4.9 23.2
04:15 1015 29.97 845 24.95 5.4 41.7 49 -4.3 24.2
04:20 1016 30 845 24.95 5.1 41.1 50 -4.4 24
04:25 1016 30 845 24.95 5.1 41.1 51 -4.3 24.3
04:30 1016 30 845 24.95 5 41 51 -4.3 24.2
04:35 1016 30 845 24.95 4.9 40.9 51 -4.4 24.1
04:40 1016 30 845 24.95 4.9 40.8 50 -4.6 23.7
04:45 1016 30 845 24.95 4.8 40.7 50 -4.7 23.6
04:50 1016 30 845 24.95 4.8 40.7 50 -4.8 23.3
04:55 1016 30 845 24.95 4.8 40.6 49 -5 23
05:00 1016 30 845 24.95 4.8 40.6 50 -4.9 23.2
05:05 1016 30 845 24.95 4.6 40.4 51 -4.7 23.5
05:10 1016 30 845 24.95 4.5 40 51 -4.9 23.2
05:15 1016 30 845 24.95 4.6 40.3 48 -5.4 22.3
05:20 1016 30 845 24.95 4.8 40.7 48 -5.2 22.6
05:25 1016 30 845 24.95 4.9 40.9 48 -5.1 22.8
05:30 1016 30 845 24.95 5 41 48 -5 22.9
05:35 1016 30 845 24.95 5 41.1 48 -5.1 22.7
05:40 1016 30 845 24.95 5.2 41.3 47 -5.3 22.4
05:45 1016 30 845 24.95 5.3 41.5 47 -5.1 22.7
05:50 1016 30 845 24.95 5.2 41.4 48 -4.9 23.2
05:55 1016 30 845 24.95 5.2 41.3 48 -4.8 23.3
06:00 1016 30 845 24.95 5.1 41.2 49 -4.8 23.3
06:05 1016 30 845 24.95 5.2 41.3 48 -5 23
06:10 1016 30 845 24.95 5.3 41.6 47 -5 23
06:15 1016 30 845 24.95 5.4 41.7 48 -4.7 23.6
06:20 1016 30 845 24.95 5.3 41.5 49 -4.7 23.6
06:25 1016 30 845 24.95 5 40.9 50 -4.6 23.7
06:30 1016 30 845 24.95 4.8 40.6 51 -4.4 24
06:35 1016 30 845 24.95 4.7 40.4 51 -4.5 23.9
06:40 1016 30 845 24.95 4.6 40.3 52 -4.3 24.3
06:45 1016 30 845 24.95 4.6 40.2 52 -4.5 23.8
06:50 1016 30 845 24.95 4.5 40 52 -4.6 23.8
06:55 1016 30 845 24.95 4.5 40.1 51 -4.7 23.5
07:00 1016 30 845 24.95 4.6 40.4 51 -4.6 23.8
07:05 1016 30 845 24.95 4.8 40.6 49 -5 22.9
07:10 1016 30 845 24.95 5 41.1 47 -5.3 22.4
07:15 1016 30 845 24.95 5.3 41.5 46 -5.3 22.4
07:20 1016 30 845 24.95 5.3 41.6 47 -5 23
07:25 1016 30 845 24.95 5.3 41.5 49 -4.6 23.8
07:30 1016 30 845 24.95 5 41 50 -4.6 23.7
07:35 1016 30 845 24.95 4.9 40.7 51 -4.4 24
07:40 1016 30 845 24.95 4.7 40.5 52 -4.4 24.1
07:45 1016 30 845 24.95 4.6 40.2 51 -4.8 23.3
07:50 1016 30 845 24.95 4.6 40.3 51 -4.6 23.8
07:55 1016 30 845 24.95 4.6 40.2 52 -4.4 24
08:00 1016 30 845 24.95 4.4 39.9 53 -4.4 24.1
08:05 1016 30 845 24.95 4.2 39.6 53 -4.4 24.1
08:10 1016 30 845 24.95 4.1 39.3 55 -4.3 24.3
08:15 1016 30 845 24.95 3.8 38.9 55 -4.3 24.2
08:20 1016 30 845 24.95 3.8 38.8 56 -4.3 24.2
08:25 1016 30 846 24.98 3.8 38.8 54 -4.7 23.6
08:30 1017 30.03 846 24.98 3.9 39 55 -4.3 24.3
08:35 1017 30.03 846 24.98 3.9 39 54 -4.5 23.9
08:40 1017 30.03 846 24.98 4.8 40.6 50 -4.7 23.5
08:45 1017 30.03 846 24.98 5.4 41.7 47 -4.9 23.2
08:50 1017 30.03 846 24.98 5.2 41.4 49 -4.7 23.5
08:55 1017 30.03 846 24.98 4.9 40.8 50 -4.8 23.4
09:00 1017 30.03 846 24.98 4.9 40.9 49 -5 23
09:05 1017 30.03 846 24.98 5.3 41.6 47 -5 23
09:10 1017 30.03 846 24.98 5.5 41.9 45 -5.4 22.2
09:15 1017 30.03 846 24.98 5.7 42.3 46 -5.1 22.9
09:20 1017 30.03 846 24.98 5.5 42 46 -5.1 22.9
09:25 1017 30.03 846 24.98 6.2 43.1 43 -5.6 22
09:30 1017 30.03 846 24.98 6.9 44.4 43 -4.9 23.1
09:35 1017 30.03 846 24.98 6.8 44.2 42 -5.2 22.7
09:40 1017 30.03 846 24.98 6.6 43.8 43 -5.2 22.6
09:45 1017 30.03 846 24.98 6.7 44.1 41 -5.5 22.1
09:50 1017 30.03 846 24.98 7.4 45.3 40 -5.3 22.4
09:55 1017 30.03 846 24.98 7.9 46.2 37 -5.9 21.4
10:00 1017 30.03 846 24.98 8.2 46.7 37 -5.7 21.8
10:05 1017 30.03 846 24.98 8.5 47.3 35 -6.2 20.8
10:10 1017 30.03 846 24.98 8.5 47.3 37 -5.4 22.3
10:15 1017 30.03 846 24.98 8.1 46.6 38 -5.5 22.1
10:20 1017 30.03 846 24.98 7.9 46.3 39 -5 23
10:25 1017 30.03 846 24.98 7.8 46 40 -4.8 23.4
10:30 1017 30.03 846 24.98 8.5 47.3 38 -5 23
10:35 1017 30.03 846 24.98 9.2 48.6 37 -4.7 23.6
10:40 1017 30.03 846 24.98 9.3 48.7 36 -4.8 23.3
10:45 1017 30.03 846 24.98 9.7 49.4 36 -4.8 23.4
10:50 1017 30.03 846 24.98 9.7 49.4 36 -4.6 23.7
10:55 1017 30.03 846 24.98 10.4 50.7 34 -4.6 23.7
11:00 1017 30.03 846 24.98 10.5 50.8 34 -4.8 23.4
11:05 1017 30.03 846 24.98 10.6 51 33 -5 23.1
11:10 1017 30.03 846 24.98 10.8 51.5 33 -4.7 23.5
11:15 1017 30.03 846 24.98 11.2 52.1 33 -4.5 23.9
11:20 1017 30.03 846 24.98 10.7 51.3 32 -5.2 22.6
11:25 1017 30.03 846 24.98 10.2 50.3 34 -5.1 22.8
11:30 1017 30.03 846 24.98 9.9 49.8 33 -5.7 21.7
11:35 1017 30.03 846 24.98 9.7 49.5 33 -5.9 21.3
11:40 1017 30.03 846 24.98 9.9 49.8 32 -5.9 21.3
11:45 1017 30.03 846 24.98 9.9 49.8 32 -6 21.1
11:50 1017 30.03 846 24.98 9.8 49.6 31 -6.4 20.5
11:55 1017 30.03 846 24.98 9.7 49.5 31 -6.6 20.2
12:00 1017 30.03 846 24.98 9.6 49.3 30 -7.3 18.9
12:05 1017 30.03 846 24.98 9.6 49.4 29 -7.6 18.3
12:10 1017 30.03 846 24.98 9.8 49.6 29 -7.5 18.4
12:15 1017 30.03 846 24.98 9.9 49.9 28 -7.6 18.4
12:20 1017 30.03 846 24.98 10.1 50.2 29 -6.9 19.5
12:25 1017 30.03 846 24.98 10.3 50.5 29 -6.8 19.7
12:30 1017 30.03 846 24.98 10.2 50.3 29 -7.2 19.1
12:35 1017 30.03 846 24.98 10 50 29 -7.2 19.1
12:40 1017 30.03 846 24.98 10.1 50.3 29 -7 19.4
12:45 1017 30.03 846 24.98 10.1 50.2 28 -7.4 18.6
12:50 1017 30.03 846 24.98 10 50.1 29 -7.3 18.9
12:55 1017 30.03 846 24.98 10.4 50.7 27 -7.7 18.2
13:00 1017 30.03 846 24.98 10.4 50.7 28 -7.1 19.2
13:05 1017 30.03 846 24.98 10.5 50.9 27 -7.7 18.1
13:10 1017 30.03 846 24.98 10.6 51 27 -7.7 18.1
13:15 1017 30.03 846 24.98 10.6 51.1 27 -7.4 18.7
13:20 1017 30.03 846 24.98 10.7 51.3 28 -7.1 19.2
13:25 1017 30.03 846 24.98 10.8 51.4 28 -6.9 19.6
13:30 1017 30.03 846 24.98 10.9 51.5 28 -6.8 19.7
13:35 1017 30.03 846 24.98 10.8 51.4 28 -6.9 19.5
13:40 1017 30.03 846 24.98 10.8 51.5 29 -6.6 20.1
13:45 1017 30.03 846 24.98 11.1 51.9 28 -6.6 20.2
13:50 1016 30 846 24.98 11.2 52.1 28 -6.8 19.8
13:55 1016 30 846 24.98 11.2 52.1 27 -7.1 19.2
14:00 1016 30 846 24.98 11.6 52.8 26 -7.5 18.6
14:05 1016 30 846 24.98 11.5 52.6 27 -7 19.4
14:10 1016 30 846 24.98 11.5 52.7 26 -7.2 19
14:15 1016 30 846 24.98 11.7 53 27 -6.9 19.7
14:20 1016 30 846 24.98 12.1 53.8 25 -7.1 19.2
14:25 1016 30 846 24.98 12.1 53.8 26 -7 19.4
14:30 1016 30 846 24.98 12 53.6 26 -7 19.5
14:35 1016 30 846 24.98 12 53.5 26 -7.1 19.2
14:40 1016 30 846 24.98 11.7 53 26 -7.3 18.8
14:45 1016 30 846 24.98 11.7 53.1 28 -6.1 21
14:50 1016 30 846 24.98 11.6 52.8 30 -5.4 22.3
14:55 1016 30 846 24.98 12.1 53.7 29 -5.4 22.3
15:00 1016 30 846 24.98 12.2 54 26 -6.9 19.7
15:05 1016 30 846 24.98 12.1 53.8 25 -7.4 18.7
15:10 1016 30 846 24.98 12.1 53.8 24 -7.9 17.7
15:15 1016 30 846 24.98 12.6 54.6 26 -6.2 20.8
15:20 1016 30 846 24.98 13 55.3 25 -6.7 19.9
15:25 1016 30 846 24.98 13.1 55.6 25 -6.7 20
15:30 1016 30 846 24.98 13 55.4 25 -6.4 20.6
15:35 1016 30 846 24.98 12.3 54.1 24 -7.4 18.6
15:40 1016 30 846 24.98 12.5 54.4 23 -8 17.6
15:45 1016 30 846 24.98 12.3 54.2 24 -7.5 18.4
15:50 1016 30 846 24.98 12.2 54 24 -7.8 17.9
15:55 1016 30 845 24.95 11.7 53 27 -6.9 19.6
16:00 1016 30 845 24.95 11.7 53.1 26 -7.1 19.2
16:05 1016 30 845 24.95 12.1 53.8 25 -7.1 19.3
16:10 1016 30 845 24.95 12.2 54 26 -6.7 19.9
16:15 1016 30 846 24.98 12.5 54.5 25 -6.8 19.8
16:20 1016 30 846 24.98 12.1 53.8 24 -7.5 18.4
16:25 1016 30 846 24.98 12 53.5 26 -7 19.4
16:30 1016 30 846 24.98 11.8 53.2 26 -7.2 19
16:35 1016 30 846 24.98 11.8 53.2 26 -7.3 18.9
16:40 1016 30 846 24.98 11.7 53 26 -7.1 19.1
16:45 1016 30 846 24.98 11.5 52.6 27 -7 19.4
16:50 1016 30 846 24.98 11.6 52.8 25 -7.9 17.7
16:55 1017 30.03 846 24.98 11.8 53.3 25 -7.3 18.8
17:00 1017 30.03 846 24.98 11.5 52.7 26 -7.2 19
17:05 1016 30 846 24.98 11.5 52.7 27 -7 19.5
17:10 1017 30.03 846 24.98 11.5 52.6 27 -6.9 19.5
17:15 1017 30.03 846 24.98 11.5 52.8 25 -7.7 18.1
17:20 1017 30.03 846 24.98 11.6 52.8 26 -7.4 18.6
17:25 1017 30.03 846 24.98 11.7 53.1 26 -7 19.4
17:30 1017 30.03 846 24.98 11.3 52.4 26 -7.4 18.8
17:35 1017 30.03 846 24.98 11.3 52.3 26 -7.3 18.9
17:40 1017 30.03 846 24.98 11.5 52.6 26 -7.4 18.7
17:45 1017 30.03 846 24.98 11.3 52.3 28 -6.6 20.1
17:50 1017 30.03 846 24.98 11 51.8 28 -6.8 19.8
17:55 1017 30.03 846 24.98 10.7 51.2 30 -6.3 20.6
18:00 1017 30.03 846 24.98 10.3 50.6 30 -6.4 20.4
18:05 1017 30.03 846 24.98 10.1 50.2 30 -6.5 20.3
18:10 1017 30.03 846 24.98 9.9 49.9 31 -6.4 20.5
18:15 1017 30.03 846 24.98 9.8 49.6 32 -6.3 20.6
18:20 1017 30.03 846 24.98 9.6 49.3 32 -6.3 20.7
18:25 1017 30.03 846 24.98 9.4 49 33 -6.2 20.8
18:30 1017 30.03 846 24.98 9.3 48.7 33 -6.3 20.7
18:35 1017 30.03 846 24.98 9.1 48.4 34 -6 21.2
18:40 1017 30.03 846 24.98 8.9 48.1 35 -5.9 21.4
18:45 1017 30.03 846 24.98 8.7 47.7 35 -5.7 21.7
18:50 1017 30.03 846 24.98 8.6 47.5 36 -5.6 22
18:55 1017 30.03 846 24.98 8.4 47.2 37 -5.4 22.2
19:00 1017 30.03 847 25.01 8.3 46.9 37 -5.5 22.1
19:05 1017 30.03 847 25.01 8.2 46.8 38 -5.2 22.6
19:10 1018 30.06 847 25.01 7.8 46.1 40 -4.8 23.4
19:15 1018 30.06 847 25.01 6.9 44.4 43 -4.8 23.4
19:20 1018 30.06 847 25.01 6.5 43.7 43 -5 22.9
19:25 1018 30.06 847 25.01 6.6 43.9 44 -4.8 23.3
19:30 1018 30.06 847 25.01 6.4 43.5 46 -4.5 23.9
19:35 1018 30.06 847 25.01 5.9 42.6 48 -4.4 24.1
19:40 1018 30.06 847 25.01 5.6 42.2 50 -4.1 24.7
19:45 1018 30.06 847 25.01 5.5 41.9 51 -3.8 25.2
19:50 1018 30.06 847 25.01 5.1 41.2 52 -4 24.7
19:55 1018 30.06 847 25.01 5 40.9 52 -4.1 24.6
20:00 1018 30.06 847 25.01 5 41.1 51 -4.2 24.4
20:05 1018 30.06 847 25.01 5.1 41.2 50 -4.4 24
20:10 1018 30.06 847 25.01 5.1 41.2 51 -4.3 24.3
20:15 1018 30.06 847 25.01 4.7 40.4 54 -3.7 25.3
20:20 1018 30.06 848 25.04 3.9 39.1 58 -3.7 25.4
20:25 1018 30.06 848 25.04 3.7 38.6 57 -4 24.8
20:30 1018 30.06 848 25.04 3.9 39 55 -4.4 24.1
20:35 1019 30.09 848 25.04 4.2 39.6 54 -4.3 24.3
20:40 1019 30.09 848 25.04 4.3 39.7 53 -4.5 24
20:45 1019 30.09 848 25.04 4.3 39.8 52 -4.6 23.6
20:50 1019 30.09 848 25.04 4.6 40.2 50 -4.9 23.1
20:55 1019 30.09 848 25.04 4.9 40.9 49 -5 23
21:00 1019 30.09 848 25.04 5.4 41.6 47 -5.1 22.9
21:05 1019 30.09 848 25.04 5.7 42.3 48 -4.5 23.8
21:10 1019 30.09 848 25.04 5.7 42.2 48 -4.5 23.8
21:15 1019 30.09 848 25.04 5.7 42.3 47 -4.6 23.7
21:20 1019 30.09 848 25.04 6 42.7 46 -4.7 23.6
21:25 1019 30.09 848 25.04 6.2 43.2 46 -4.6 23.7
21:30 1019 30.09 849 25.07 6.4 43.5 46 -4.3 24.2
21:35 1019 30.09 849 25.07 6.4 43.6 47 -4.1 24.6
21:40 1020 30.12 849 25.07 6.2 43.1 50 -3.4 25.9
21:45 1020 30.12 849 25.07 5.9 42.6 53 -3 26.7
21:50 1020 30.12 849 25.07 6 42.8 53 -2.7 27.1
21:55 1020 30.12 849 25.07 6.1 42.9 55 -2.3 27.9
22:00 1020 30.12 849 25.07 6 42.7 55 -2.3 27.9
22:05 1020 30.12 849 25.07 6 42.7 55 -2.3 27.9
22:10 1020 30.12 849 25.07 6.1 43 55 -2.2 28.1
22:15 1020 30.12 849 25.07 6.2 43.2 54 -2.3 27.9
22:20 1020 30.12 849 25.07 6.3 43.3 55 -2.2 28.1
22:25 1020 30.12 849 25.07 6.4 43.5 55 -2 28.3
22:30 1020 30.12 849 25.07 6.5 43.7 57 -1.5 29.4
22:35 1020 30.12 849 25.07 6.3 43.3 63 -0.3 31.5
22:40 1020 30.12 850 25.1 5.9 42.6 66 0 32
22:45 1020 30.12 850 25.1 5.6 42 69 0.4 32.7
22:50 1020 30.12 850 25.1 5.3 41.5 72 0.6 33.1
22:55 1021 30.15 850 25.1 5.1 41.2 73 0.8 33.4
23:00 1021 30.15 850 25.1 5 41 75 1 33.7
23:05 1021 30.15 850 25.1 4.9 40.8 76 1.1 34
23:10 1021 30.15 850 25.1 4.6 40.2 80 1.4 34.6
23:15 1021 30.15 850 25.1 4 39.1 84 1.6 34.8
23:20 1021 30.15 850 25.1 3.7 38.7 86 1.6 34.9
23:25 1021 30.15 851 25.13 3.4 38.2 85 1.2 34.2
23:30 1021 30.15 851 25.13 3 37.4 87 1 33.8
23:35 1021 30.15 851 25.13 2.8 37 88 1 33.9
23:40 1022 30.18 851 25.13 2.8 37 89 1.2 34.2
23:45 1022 30.18 851 25.13 2.8 37.1 90 1.3 34.4
23:50 1022 30.18 851 25.13 2.8 37 89 1.2 34.1
23:55 1022 30.18 851 25.13 2.5 36.5 88 0.7 33.3
24:00 1022 30.18 851 25.13 2.2 36 88 0.5 32.8